Airfield :
LOGIN :

Register | Disclaimer

   EN    FR    IT 

 










Legend :    VFR   Marginal VFR   IFR   Intensive IFR   Very Intensive IFR
Visi :
Ceiling :
>= 8 km
>= 3000ft
5 to 8 km
1000 to 3000 ft
1500m to 5 km
500 to 1000 ft
800 to 1500m
200 to 500 ft
< 800m
< 200 ft
Symbols :   Thunderstorms  Fog  Heavy snow  Heavy precipitations  Wind > 20 kt
SIGMETs :     Misc.  Thunderstorms  Icing  Turbulence  Mountain Waves  Volcanic Ashes







- Airport Elevation : 161 ft
- IATA code : PMF


LIMP - Parma

CURRENT METAR :
  • 221150Z 32003KT 1300 R20/P2000U -SN BR OVC006 01/01 Q1009 RESN

EXPIRED METARs :
  • 221050Z 33002KT 0900 R20/1200 SN FG OVC008 00/00 Q1009
  • 220950Z VRB02KT 1000 R20/1000 SN BR BKN003 OVC010 00/00 Q1009

TAF TAF LIMP
Valid from the 22 at 12:00 until the 23 at 12:00 UTC


221100Z 2212/2312 VRB05KT 3000 DZ SCT005 BKN010
TEMPO 2212/2220 0800 SN OVC008
BECMG 2220/2222 0600 SN OVC005
BECMG 2309/2312 2000 DZ BKN008 OVC025
No reported NOTAMs for that airfield.



MET'MAP, your aeronautical weather chart ! - Copyright ORBIFLY December 2007 - Disclaimer

ORBIFLY MET'MAP TEAM :

Programming & Development : Alexandra Zaïnal
Concept & Development : Baudouin d'Aumeries
Co-Development & Prog : Marc-Olivier Méhu
Technical & hardware support : Manuel Goepfert

Contact : metmap@orbifly.com




SOURCES & CREDITS :

   NOAA